Tracking 20719 objects as of 25-May-2020
HD Live streaming from Space Station
objects crossing your sky now

PALAPA 2

Track PALAPA 2 now!
PALAPA 2 is classified as:


NORAD ID: 9862
Int'l Code: 1977-018A
Perigee: 35,827.8 km
Apogee: 35,891.4 km
Inclination: 12.8 °
Period: 1,439.5 minutes
Semi major axis: 42230 km
RCS: 5.6864 m2 (large)
Launch date: March 10, 1977
Source: Indonesia (INDO)
Launch site: AIR FORCE EASTERN TEST RANGE (AFETR)
aabbcc
Your satellite tracking list
Your tracking list is empty




NASA's NSSDC Master Catalog

Two Line Element Set (TLE):
1  9862U 77018A   20143.64887042 +.00000133 +00000-0 +00000-0 0  9994
2  9862 012.8256 329.2018 0007537 060.3757 122.9097 01.00037355120935
Source of the keplerian elements: AFSPC